[[{"header":{"parameterUnit":"m.s-1","parameterCategory":2,"la1":30.2992,"la2":30.254,"lo1":-89.0895,"lo2":-89.0443,"dy":0.0025,"dx":0.0025,"nx":19,"ny":19,"refTime":"2026-04-03T03:00:00:Z","depth":"0","parameterNumber":2,"parameterNumberName":"U-component_of_CURRENTS"},"data":[0,0,0,0.0729,0.0727,0.0628,0.0627,0.0533,0.0533,0,0,0,0,0,0,0,0,0,0,0,0.0765,0.0765,0.0729,0.0727,0.0628,0.0627,0.0533,0.0533,0,0,0,0,0,0,0,0,0,0,0,0.0765,0.0765,0.0764,0.0727,0.0628,0.0627,0.0534,0.0596,0,0,0,0,0,0,0,0,0,0,0.0687,0.0715,0.0765,0.0764,0.0726,0.0628,0.0627,0.0599,0.0593,0.0593,0,0.0588,0,0.0565,0.0529,0.0529,0,0,0,0.0711,0.072,0.0703,0.0764,0.0726,0.0628,0.0668,0.0595,0.0588,0.0585,0.0586,0.0582,0.0564,0.0528,0.0528,0.0556,0.0556,0,0,0.0716,0.0734,0.0708,0.0699,0.0714,0.0671,0.0665,0.059,0.0584,0.0586,0.058,0.0562,0.0528,0.0528,0.0555,0.0556,0,0,0,0.0743,0.0738,0.0721,0.0704,0.0687,0.0669,0.0662,0.0587,0.0584,0.0579,0.0561,0.0528,0.0527,0.0554,0.0555,0.0639,0,0,0,0.0745,0.0755,0.0724,0.0732,0.0688,0.063,0.0661,0.0589,0.058,0.0562,0.0528,0.0526,0.0553,0.0555,0.0635,0.0668,0,0,0,0.0767,0.0757,0.0752,0.0734,0.0698,0.063,0.0621,0.0586,0.057,0.0529,0.0526,0.0553,0.0554,0.0632,0.0662,0.0768,0,0,0,0.0779,0.0757,0.0752,0.0717,0.07,0.0651,0.0621,0.0574,0.054,0.0527,0.0553,0.0555,0.063,0.0659,0.0763,0.0868,0.0899,0,0,0.0755,0.0755,0.0732,0.0725,0.0688,0.0663,0.065,0.0596,0.0575,0.0575,0.0575,0.0637,0.0662,0.0767,0.0972,0.1,0,0,0,0.0726,0.0715,0.0699,0.0678,0.0651,0.067,0.0618,0.0633,0.065,0.0566,0.065,0.0663,0.0727,0.0781,0.0803,0.0877,0.0564,0.0563,0.0563,0.0709,0.0697,0.0674,0.0668,0.0661,0.0672,0.0703,0.0726,0.068,0.0727,0.0742,0.089,0.0948,0.0966,0.104,0.0754,0.0755,0.0755,0.0755,0.0675,0.066,0.068,0.0657,0.0704,0.0715,0.0794,0.081,0.0909,0.0841,0.09,0.0878,0.0995,0.1066,0.0761,0.076,0.0759,0.0759,0.0758,0.065,0.0648,0.0646,0.0663,0.0718,0.0764,0.0885,0.0938,0.0986,0.105,0.1129,0.1128,0.1184,0.1091,0.1091,0.1092,0.1092,0.1093,0.1093,0.0628,0.0631,0.0645,0.0672,0.0712,0.0803,0.0947,0.1047,0.1199,0.1238,0.1239,0.1261,0.0992,0.0972,0.1103,0.1101,0.11,0.1099,0.1098,0.0593,0.0612,0.0637,0.067,0.0765,0.0871,0.1008,0.1266,0.1391,0.1495,0.1566,0.1355,0.1346,0.1328,0.1316,0.1528,0.1528,0.1528,0.1528,0.059,0.0592,0.0652,0.0711,0.08,0.0908,0.1138,0.1358,0.1633,0.1764,0.1784,0.1731,0.171,0.1717,0.169,0.1682,0.1983,0.1984,0.1984,0.0597,0.0618,0.0663,0.0715,0.0811,0.0952,0.1153,0.1403,0.1812,0.2005,0.1874,0.1855,0.177,0.1731,0.1724,0.168,0.1659,0,0]},{"header":{"parameterUnit":"m.s-1","parameterCategory":2,"la1":30.2992,"la2":30.254,"lo1":-89.0895,"lo2":-89.0443,"dy":0.0025,"dx":0.0025,"nx":19,"ny":19,"refTime":"2026-04-03T03:00:00:Z","depth":"0","parameterNumber":3,"parameterNumberName":"V-component_of_CURRENTS"},"data":[0,0,0,-0.0142,-0.0143,-0.0162,-0.0162,-0.0091,-0.009,0,0,0,0,0,0,0,0,0,0,0,-0.0122,-0.0122,-0.0142,-0.0143,-0.0162,-0.0162,-0.0091,-0.009,0,0,0,0,0,0,0,0,0,0,0,-0.0121,-0.0122,-0.0122,-0.0143,-0.0162,-0.0162,-0.0091,-0.0095,0,0,0,0,0,0,0,0,0,0,-0.0086,-0.0087,-0.0122,-0.0122,-0.0144,-0.0162,-0.0162,-0.0096,-0.0095,-0.0061,0,-0.0071,0,-0.0092,-0.0085,-0.0085,0,0,0,-0.0122,-0.0089,-0.0102,-0.0122,-0.0144,-0.0162,-0.0148,-0.0096,-0.0094,-0.0059,-0.0071,-0.0069,-0.0091,-0.0084,-0.0084,-0.0006,-0.0006,0,0,-0.0121,-0.0113,-0.0103,-0.0101,-0.0157,-0.0147,-0.0149,-0.0096,-0.009,-0.007,-0.0068,-0.009,-0.0084,-0.0083,-0.0007,-0.0006,0,0,0,-0.0132,-0.0112,-0.0128,-0.0103,-0.0122,-0.0148,-0.015,-0.0092,-0.01,-0.0068,-0.0089,-0.0083,-0.0082,-0.0007,-0.0006,0.003,0,0,0,-0.0131,-0.0121,-0.0127,-0.0121,-0.0124,-0.0121,-0.0147,-0.0103,-0.0099,-0.0089,-0.0083,-0.0082,-0.0007,-0.0007,0.0028,0.0065,0,0,0,-0.0119,-0.0119,-0.0126,-0.012,-0.0141,-0.0123,-0.0127,-0.0103,-0.0112,-0.0084,-0.0081,-0.0007,-0.0007,0.0027,0.0061,0.0098,0,0,0,-0.0103,-0.0107,-0.0125,-0.013,-0.0141,-0.0122,-0.0128,-0.0108,-0.0083,-0.0083,-0.0007,-0.0006,0.0026,0.0059,0.0095,0.0135,0.0149,0,0,-0.0098,-0.0106,-0.0108,-0.0126,-0.0101,-0.0117,-0.007,-0.005,-0.006,-0.0015,-0.0014,0.0029,0.0061,0.0097,0.0174,0.0186,0,0,0,-0.01,-0.0096,-0.0092,-0.0087,-0.008,-0.004,-0.0036,-0.0028,-0.0002,-0.0049,0.0032,0.0052,0.0073,0.0093,0.0103,0.0062,-0.0003,-0.0003,-0.0004,-0.0057,-0.0062,-0.0039,-0.0031,-0.001,0.0019,0.005,0.0064,0.0042,0.0051,0.0083,0.014,0.0161,0.0169,0.0127,0.0074,0.0074,0.0074,0.0074,-0.0024,-0.0011,0.0009,0.0025,0.0067,0.0107,0.0147,0.0135,0.0171,0.0129,0.0147,0.0132,0.0182,0.0133,0.0076,0.0076,0.0076,0.0075,0.0075,0.0005,0.0013,0.002,0.0064,0.0126,0.0161,0.0238,0.0238,0.0217,0.0237,0.0249,0.0248,0.0205,0.0235,0.0235,0.0236,0.0236,0.0236,0.0236,0.003,0.0041,0.0073,0.0111,0.0153,0.0224,0.0288,0.032,0.0333,0.0312,0.0312,0.0227,0.019,0.0183,0.0241,0.024,0.024,0.0239,0.0239,0.0056,0.0061,0.0109,0.0147,0.0247,0.0348,0.0391,0.0466,0.0472,0.0486,0.0355,0.0352,0.035,0.0342,0.0339,0.0434,0.0434,0.0434,0.0434,0.008,0.0084,0.0159,0.0231,0.0328,0.0414,0.0569,0.0627,0.0547,0.0487,0.0411,0.0366,0.036,0.0355,0.0346,0.0342,0.0435,0.0435,0.0435,0.0112,0.0128,0.019,0.0254,0.0365,0.0497,0.0667,0.081,0.0638,0.0428,0.0349,0.0349,0.0272,0.0265,0.0244,0.0236,0.0223,0,0]}],[{"header":{"parameterUnit":"m.s-1","parameterCategory":2,"la1":30.2992,"la2":30.254,"lo1":-89.0895,"lo2":-89.0443,"dy":0.0025,"dx":0.0025,"nx":19,"ny":19,"refTime":"2026-04-03T03:00:00:Z","depth":"2","parameterNumber":2,"parameterNumberName":"U-component_of_CURRENTS"},"data":[0,0,0,0.0846,0.0845,0.0769,0.0769,0.0685,0.0684,0,0,0,0,0,0,0,0,0,0,0,0.0872,0.0872,0.0846,0.0845,0.0769,0.0769,0.0685,0.0684,0,0,0,0,0,0,0,0,0,0,0,0.0872,0.0872,0.0871,0.0845,0.0769,0.0769,0.0685,0.0735,0,0,0,0,0,0,0,0,0,0,0.0805,0.0828,0.0872,0.0871,0.0844,0.0769,0.0769,0.0737,0.0732,0.0728,0,0.0727,0,0.0712,0.0681,0.068,0,0,0,0.0828,0.0832,0.0821,0.0871,0.0844,0.077,0.0798,0.0734,0.0728,0.0722,0.0725,0.0722,0.071,0.068,0.068,0.0707,0.0707,0,0,0.0832,0.0846,0.0825,0.0818,0.0838,0.0801,0.0796,0.073,0.0725,0.0725,0.072,0.0709,0.068,0.0679,0.0706,0.0707,0,0,0,0.0855,0.0849,0.0838,0.0821,0.0811,0.0799,0.0794,0.0728,0.0727,0.0719,0.0708,0.068,0.0679,0.0705,0.0706,0.0785,0,0,0,0.0857,0.0864,0.084,0.0846,0.0812,0.0766,0.0793,0.0731,0.0723,0.0708,0.068,0.0678,0.0704,0.0706,0.0781,0.081,0,0,0,0.0873,0.0865,0.0863,0.0847,0.0823,0.0766,0.076,0.0729,0.0718,0.068,0.0678,0.0704,0.0706,0.0778,0.0804,0.0908,0,0,0,0.088,0.0866,0.0863,0.0841,0.0824,0.0791,0.076,0.0722,0.0692,0.0679,0.0705,0.0706,0.0776,0.0801,0.0904,0.0985,0.1012,0,0,0.0864,0.0865,0.0851,0.0846,0.0826,0.0799,0.0796,0.0744,0.0723,0.0722,0.0722,0.0782,0.0804,0.0907,0.1083,0.1107,0,0,0,0.0846,0.084,0.0831,0.082,0.0802,0.0819,0.0771,0.0783,0.0796,0.0717,0.0795,0.0806,0.0869,0.0909,0.0929,0.0714,0.0714,0.0714,0.0714,0.0833,0.0828,0.0818,0.0819,0.0817,0.0828,0.0856,0.0873,0.0828,0.087,0.088,0.1022,0.1065,0.1081,0.0893,0.0893,0.0894,0.0894,0.0894,0.0811,0.0802,0.0826,0.0814,0.0856,0.0866,0.0939,0.0951,0.1042,0.0975,0.1033,0.1,0.1108,0.09,0.0899,0.0898,0.0898,0.0897,0.0897,0.0788,0.0789,0.0791,0.0813,0.0863,0.0904,0.1018,0.1067,0.1111,0.1172,0.1237,0.1236,0.1081,0.1213,0.1213,0.1214,0.1214,0.1215,0.1215,0.0764,0.0772,0.0785,0.0815,0.085,0.0934,0.107,0.1167,0.1306,0.1336,0.1337,0.113,0.112,0.1101,0.1225,0.1223,0.1222,0.1221,0.122,0.0733,0.0747,0.0773,0.0803,0.0894,0.099,0.1124,0.1361,0.1481,0.1574,0.1451,0.1442,0.1432,0.1416,0.1404,0.1599,0.1599,0.1599,0.1599,0.0726,0.0729,0.0783,0.0839,0.0924,0.1023,0.1221,0.1394,0.1552,0.1595,0.1594,0.1514,0.1501,0.1488,0.1469,0.1455,0.1664,0.1663,0.1663,0.073,0.0751,0.0791,0.084,0.0933,0.1059,0.1212,0.1341,0.1525,0.1655,0.1497,0.1625,0.1503,0.1484,0.1453,0.1427,0.14,0,0]},{"header":{"parameterUnit":"m.s-1","parameterCategory":2,"la1":30.2992,"la2":30.254,"lo1":-89.0895,"lo2":-89.0443,"dy":0.0025,"dx":0.0025,"nx":19,"ny":19,"refTime":"2026-04-03T03:00:00:Z","depth":"2","parameterNumber":3,"parameterNumberName":"V-component_of_CURRENTS"},"data":[0,0,0,-0.0217,-0.0219,-0.0256,-0.0256,-0.02,-0.0199,0,0,0,0,0,0,0,0,0,0,0,-0.019,-0.019,-0.0217,-0.0219,-0.0256,-0.0256,-0.02,-0.0199,0,0,0,0,0,0,0,0,0,0,0,-0.019,-0.019,-0.019,-0.0219,-0.0256,-0.0256,-0.02,-0.0193,0,0,0,0,0,0,0,0,0,0,-0.0168,-0.0164,-0.019,-0.019,-0.0219,-0.0256,-0.0256,-0.0194,-0.0193,-0.0159,0,-0.0171,0,-0.0196,-0.0195,-0.0194,0,0,0,-0.02,-0.0164,-0.0181,-0.019,-0.022,-0.0256,-0.0234,-0.0194,-0.0194,-0.0159,-0.0171,-0.017,-0.0196,-0.0194,-0.0194,-0.0124,-0.0124,0,0,-0.0198,-0.0186,-0.0181,-0.0181,-0.0235,-0.0233,-0.0235,-0.0195,-0.019,-0.0171,-0.0169,-0.0195,-0.0194,-0.0193,-0.0124,-0.0124,0,0,0,-0.0205,-0.0184,-0.0203,-0.0182,-0.0204,-0.0234,-0.0237,-0.0192,-0.0201,-0.0169,-0.0194,-0.0193,-0.0193,-0.0124,-0.0124,-0.0087,0,0,0,-0.0202,-0.019,-0.0203,-0.0194,-0.0206,-0.0214,-0.0234,-0.0203,-0.02,-0.0194,-0.0193,-0.0192,-0.0125,-0.0124,-0.0089,-0.0049,0,0,0,-0.0187,-0.0188,-0.0196,-0.0194,-0.0221,-0.0216,-0.0222,-0.0203,-0.0215,-0.0194,-0.0192,-0.0125,-0.0124,-0.009,-0.0053,-0.0014,0,0,0,-0.0167,-0.018,-0.0196,-0.0212,-0.0221,-0.0218,-0.0222,-0.0213,-0.0195,-0.0193,-0.0125,-0.0124,-0.0091,-0.0055,-0.0016,0.0017,0.003,0,0,-0.0173,-0.018,-0.019,-0.0206,-0.0202,-0.0211,-0.0178,-0.0163,-0.0171,-0.0128,-0.0127,-0.0088,-0.0053,-0.0014,0.0055,0.0067,0,0,0,-0.0185,-0.0187,-0.0189,-0.0193,-0.0195,-0.0154,-0.0154,-0.0144,-0.0117,-0.0164,-0.0085,-0.0063,-0.004,-0.0026,-0.0016,-0.0121,-0.0121,-0.0121,-0.0121,-0.0151,-0.0164,-0.0154,-0.0153,-0.0137,-0.0109,-0.0076,-0.0057,-0.0079,-0.0066,-0.0032,0.0028,0.0043,0.0051,-0.0043,-0.0043,-0.0043,-0.0043,-0.0043,-0.0134,-0.0127,-0.0112,-0.0107,-0.0063,-0.0025,0.002,0.0013,0.0056,0.0015,0.0034,0.0015,0.0064,-0.004,-0.004,-0.0041,-0.0041,-0.0041,-0.0041,-0.0109,-0.0102,-0.01,-0.0064,-0.0002,0.0036,0.0118,0.0123,0.0107,0.0129,0.0137,0.0136,0.0064,0.0127,0.0128,0.0128,0.0129,0.0129,0.0129,-0.008,-0.0075,-0.0043,-0.0011,0.0032,0.0106,0.0175,0.021,0.0224,0.0203,0.0202,0.0086,0.0081,0.0074,0.0134,0.0133,0.0133,0.0132,0.0132,-0.0058,-0.0049,-0.0004,0.0035,0.0134,0.0233,0.0279,0.0354,0.0364,0.0376,0.0245,0.0241,0.0239,0.023,0.0228,0.0324,0.0324,0.0324,0.0324,-0.0028,-0.0026,0.0052,0.0124,0.022,0.03,0.0444,0.0481,0.0437,0.0383,0.038,0.0337,0.0328,0.0328,0.0317,0.0314,0.0434,0.0434,0.0434,0.0005,0.0022,0.0088,0.0151,0.0259,0.0383,0.0527,0.0588,0.0494,0.0437,0.0382,0.0335,0.0261,0.0251,0.0239,0.0226,0.0217,0,0]}],[{"header":{"parameterUnit":"m.s-1","parameterCategory":2,"la1":30.2992,"la2":30.254,"lo1":-89.0895,"lo2":-89.0443,"dy":0.0025,"dx":0.0025,"nx":19,"ny":19,"refTime":"2026-04-03T03:00:00:Z","depth":"4","parameterNumber":2,"parameterNumberName":"U-component_of_CURRENTS"},"data":[0,0,0,0.08,0.0801,0.0915,0.0916,0.1076,0.1077,0,0,0,0,0,0,0,0,0,0,0,0.078,0.0781,0.0799,0.0802,0.0915,0.0916,0.1076,0.1077,0,0,0,0,0,0,0,0,0,0,0,0.078,0.0781,0.0782,0.0802,0.0915,0.0916,0.1075,0.0991,0,0,0,0,0,0,0,0,0,0,0.0881,0.0854,0.0781,0.0782,0.0802,0.0915,0.0916,0.0987,0.0996,0.1022,0,0.1043,0,0.1047,0.1086,0.1087,0,0,0,0.0823,0.0846,0.0869,0.0782,0.0803,0.0915,0.087,0.0992,0.1003,0.1034,0.1045,0.1051,0.1049,0.1087,0.1088,0.1207,0.1208,0,0,0.0816,0.081,0.0862,0.0876,0.0838,0.0866,0.0873,0.0999,0.1017,0.1046,0.1054,0.1052,0.1088,0.1089,0.1207,0.1208,0,0,0,0.0784,0.0805,0.0826,0.087,0.088,0.0869,0.0877,0.1012,0.1017,0.1056,0.1054,0.1089,0.109,0.1207,0.1207,0.125,0,0,0,0.0781,0.0784,0.0823,0.0821,0.0877,0.0944,0.0887,0.1009,0.1022,0.1053,0.1089,0.1092,0.1206,0.1207,0.1248,0.1243,0,0,0,0.0774,0.0783,0.0797,0.082,0.0857,0.0942,0.0956,0.1012,0.102,0.1087,0.1092,0.1206,0.1207,0.1246,0.1241,0.1255,0,0,0,0.0763,0.0784,0.0797,0.0829,0.0855,0.0921,0.0955,0.1029,0.1088,0.109,0.1207,0.1207,0.1246,0.1239,0.1254,0.1131,0,0,0,0.0776,0.0786,0.0804,0.0817,0.087,0.0906,0.0977,0.1072,0.1104,0.1169,0.1172,0.1249,0.1241,0.1255,0.1173,0,0,0,0,0.0799,0.0815,0.0835,0.0872,0.0916,0.0977,0.1051,0.1089,0.1184,0.1137,0.1251,0.1244,0.1252,0.1177,0.1211,0.1211,0.121,0.121,0.121,0.0807,0.083,0.0872,0.0916,0.0961,0.1038,0.1097,0.1162,0.1201,0.1249,0.1282,0.1321,0.1245,0.1297,0.1297,0.1297,0.1297,0.1298,0.1298,0.0824,0.0845,0.0897,0.0945,0.1006,0.107,0.116,0.1206,0.1299,0.1312,0.1319,0.123,0.1302,0.1301,0.13,0.13,0.13,0.1299,0.1299,0.0814,0.0829,0.0871,0.0944,0.1019,0.1094,0.1161,0.1245,0.1318,0.1357,0.1282,0.1341,0.1333,0.1378,0.1378,0.1379,0.1379,0.1379,0.1379,0.078,0.0824,0.0864,0.0942,0.0988,0.1059,0.1176,0.1231,0.1316,0.1296,0.1375,0.1348,0.1345,0.1337,0.138,0.1379,0.1379,0.1379,0.1379,0.076,0.0783,0.0831,0.0875,0.0964,0.0997,0.111,0.1181,0.1231,0.1241,0.1258,0.1264,0.123,0.123,0.1216,0.1224,0.1223,0.1221,0,0.074,0.0755,0.0811,0.0852,0.0893,0.0958,0.0991,0.1068,0.1144,0.1105,0.1238,0.1254,0.1258,0.1217,0.1214,0.1196,0,0,0,0.0734,0.0751,0.0776,0.0823,0.0856,0.091,0.0995,0.1002,0.1116,0.1142,0.1185,0.1194,0.1321,0.1382,0.1343,0.134,0.1324,0,0]},{"header":{"parameterUnit":"m.s-1","parameterCategory":2,"la1":30.2992,"la2":30.254,"lo1":-89.0895,"lo2":-89.0443,"dy":0.0025,"dx":0.0025,"nx":19,"ny":19,"refTime":"2026-04-03T03:00:00:Z","depth":"4","parameterNumber":3,"parameterNumberName":"V-component_of_CURRENTS"},"data":[0,0,0,-0.0156,-0.0158,-0.0275,-0.0276,-0.043,-0.0431,0,0,0,0,0,0,0,0,0,0,0,-0.0123,-0.0124,-0.0156,-0.0158,-0.0275,-0.0276,-0.043,-0.0431,0,0,0,0,0,0,0,0,0,0,0,-0.0123,-0.0123,-0.0124,-0.0159,-0.0275,-0.0276,-0.043,-0.0343,0,0,0,0,0,0,0,0,0,0,-0.023,-0.0189,-0.0123,-0.0124,-0.0159,-0.0275,-0.0276,-0.0339,-0.0348,-0.0375,0,-0.0394,0,-0.0409,-0.0441,-0.0441,0,0,0,-0.017,-0.0181,-0.0215,-0.0125,-0.016,-0.0274,-0.0226,-0.0344,-0.0355,-0.0387,-0.0396,-0.0402,-0.0411,-0.0442,-0.0442,-0.0528,-0.0528,0,0,-0.0164,-0.0144,-0.0208,-0.0222,-0.0192,-0.0222,-0.0229,-0.0351,-0.0361,-0.0396,-0.0405,-0.0414,-0.0443,-0.0444,-0.0528,-0.0528,0,0,0,-0.0137,-0.0139,-0.017,-0.0216,-0.0232,-0.0225,-0.0233,-0.0356,-0.0367,-0.0407,-0.0416,-0.0443,-0.0445,-0.0528,-0.0528,-0.0513,0,0,0,-0.0134,-0.0123,-0.0167,-0.0157,-0.023,-0.0293,-0.0236,-0.0359,-0.0373,-0.0415,-0.0443,-0.0446,-0.0529,-0.0528,-0.0514,-0.0478,0,0,0,-0.0117,-0.0121,-0.0135,-0.0155,-0.02,-0.0291,-0.031,-0.0363,-0.0378,-0.0441,-0.0447,-0.0529,-0.0528,-0.0514,-0.048,-0.0419,0,0,0,-0.0092,-0.0131,-0.0135,-0.0184,-0.0199,-0.0271,-0.031,-0.0381,-0.0435,-0.0444,-0.0529,-0.0528,-0.0514,-0.0482,-0.0421,-0.0325,0,0,0,-0.0129,-0.0135,-0.0164,-0.0171,-0.0232,-0.0256,-0.0309,-0.0399,-0.0436,-0.0492,-0.0494,-0.0513,-0.048,-0.042,-0.0312,0,0,0,0,-0.0168,-0.0188,-0.021,-0.0244,-0.0285,-0.0307,-0.0379,-0.0398,-0.0459,-0.0464,-0.0512,-0.0491,-0.0454,-0.0404,-0.0527,-0.0527,-0.0527,-0.0527,-0.0527,-0.0186,-0.021,-0.0251,-0.0284,-0.0314,-0.0353,-0.0371,-0.0404,-0.0459,-0.0472,-0.048,-0.0421,-0.0371,-0.0496,-0.0496,-0.0496,-0.0495,-0.0495,-0.0495,-0.0224,-0.0243,-0.026,-0.0306,-0.0314,-0.0347,-0.0369,-0.0394,-0.0399,-0.0452,-0.0417,-0.0394,-0.0494,-0.0494,-0.0494,-0.0495,-0.0495,-0.0495,-0.0495,-0.0224,-0.0233,-0.0261,-0.0289,-0.0301,-0.0323,-0.0283,-0.0324,-0.0362,-0.0349,-0.0274,-0.0384,-0.0381,-0.0334,-0.0334,-0.0333,-0.0333,-0.0333,-0.0333,-0.02,-0.0228,-0.0233,-0.0264,-0.0259,-0.0241,-0.023,-0.0202,-0.0238,-0.0215,-0.0332,-0.0365,-0.037,-0.0371,-0.0326,-0.0327,-0.0328,-0.0329,-0.0329,-0.0198,-0.0194,-0.0194,-0.019,-0.0165,-0.0138,-0.0131,-0.0052,-0.0007,0.0019,-0.0132,-0.0143,-0.0124,-0.0134,-0.0126,-0.0007,-0.0006,-0.0004,0,-0.0169,-0.0177,-0.0142,-0.011,-0.0059,-0.0067,0.0046,0.0077,0.005,0.0041,-0.0037,-0.0212,-0.0219,-0.0206,-0.0212,-0.0206,0,0,0,-0.0145,-0.0138,-0.0096,-0.0074,-0.0011,0.0058,0.0081,0.0119,0.0033,0.0136,0.0033,0.0023,-0.0164,-0.0307,-0.0304,-0.031,-0.031,0,0]}]]